sat.trackr.live / text

‹ back to catalog

STARLINK-35105

NORAD 65543 · 2025-200Z

PAYLOAD ACTIVE UNKNOWN

§ Identity

Operator
Country
US
Launch date
2025-09-06
Launch site
AFWTR
Launch vehicle
Mass (kg)
RCS (m²)

Purposes: comms

External: N2YO · Heavens-Above · Gunter

§ Orbital elements

Epoch: 2026-09-19T23:55:28.812000Z

Period
93.91 min
Inclination
97.2844°
Eccentricity
0.0002054
Mean motion
15.33458869 rev/d
Perigee alt
464.1 km
Apogee alt
466.9 km
Semi-major
6,843.6 km
B*
5.1837e-4
RAAN
329.3806°
Arg perigee
92.5854°
Mean anomaly
267.5624°
Rev number
5,856

§ Raw data

STARLINK-351051 65543U 25200Z   26262.99686125  .00016705  00000+0  51837-3 0  99912 65543  97.2844 329.3806 0002054  92.5854 267.5624 15.33458869 58562

JSON: /api/v1/satellites/65543 · /tle

For live sub-satellite position, see the globe view (requires WebGL).

§ Visibility from observer

Set your observer location to see the next 7 days of passes ≥ 10°. The values pass through the URL so the page stays shareable.

No JS? Fill the form by hand. The geolocation button needs JavaScript.